When you browse on this site, cookies collect data to enhance your experience and personalize the content and advertising you see.
Visit our Privacy Policy to learn more. By continuing to use the site, you agree to this use of cookies and data.
  • In Hungary
  • List of Countries
  • For 7 days
  • Water Temperature
  • Weather Map
  • News
  • Weather Widgets
  • user-avatar
    Login

    Hourly Weather Veliko Tarnovo

    Today, 20 February, Thursday

    Time Temperature Precipitation Wind Pressure Humidity
    00:00 +6°C° 0.2 mm 0 mps 739 mmHg 91%
    01:00 +6°C° 0.2 mm 0 mps 738 mmHg 92%
    02:00 +6°C° 0.2 mm 0 mps 738 mmHg 92%
    03:00 +6°C° 0.3 mm 0 mps 738 mmHg 93%
    04:00 +6°C° 0.3 mm 0 mps 738 mmHg 93%
    05:00 +6°C° 0.3 mm 0 mps 738 mmHg 94%
    06:00 +6°C° 0.5 mm 0 mps 738 mmHg 95%
    07:00 +6°C° 0.5 mm 0 mps 738 mmHg 95%
    08:00 +7°C° 0.5 mm 1 mps 738 mmHg 96%
    09:00 +7°C° 0.5 mm 1 mps 738 mmHg 94%
    10:00 +7°C° 0.5 mm 1 mps 738 mmHg 93%
    11:00 +7°C° 0.5 mm 1 mps 738 mmHg 92%
    12:00 +6°C° 0.3 mm 2 mps 738 mmHg 91%
    13:00 +6°C° 0.3 mm 2 mps 738 mmHg 91%
    14:00 +6°C° 0.3 mm 2 mps 738 mmHg 90%
    15:00 +6°C° 0.3 mm 2 mps 738 mmHg 91%
    16:00 +5°C° 0.3 mm 3 mps 738 mmHg 92%
    17:00 +4°C° 0.3 mm 3 mps 738 mmHg 92%
    18:00 +4°C° 0.6 mm 3 mps 739 mmHg 93%
    19:00 +4°C° 0.6 mm 3 mps 739 mmHg 93%
    20:00 +5°C° 0.6 mm 2 mps 740 mmHg 94%
    21:00 +5°C° 1 mm 2 mps 740 mmHg 94%
    22:00 +5°C° 1 mm 2 mps 740 mmHg 94%
    23:00 +5°C° 1 mm 2 mps 740 mmHg 94%

    Tomorrow, 21 February, Friday

    Time Temperature Precipitation Wind Pressure Humidity
    00:00 +4°C° 0.9 mm 2 mps 740 mmHg 94%
    01:00 +4°C° 0.9 mm 2 mps 740 mmHg 95%
    02:00 +4°C° 0.9 mm 2 mps 741 mmHg 96%
    03:00 +5°C° 0.7 mm 1 mps 741 mmHg 95%
    04:00 +5°C° 0.7 mm 1 mps 741 mmHg 95%
    05:00 +5°C° 0.7 mm 1 mps 741 mmHg 95%
    06:00 +5°C° 0.4 mm 1 mps 741 mmHg 95%
    07:00 +5°C° 0.4 mm 1 mps 742 mmHg 94%
    08:00 +5°C° 0.4 mm 1 mps 742 mmHg 93%
    15:00 +5°C° 0.1 mm 3 mps 742 mmHg 82%
    16:00 +5°C° 0.1 mm 3 mps 742 mmHg 83%
    17:00 +4°C° 0.1 mm 4 mps 742 mmHg 84%
    18:00 +4°C° 0 mm 3 mps 742 mmHg 85%
    19:00 +3°C° 0 mm 3 mps 743 mmHg 87%
    20:00 +4°C° 0 mm 2 mps 743 mmHg 88%
    21:00 +4°C° 0 mm 2 mps 743 mmHg 86%
    22:00 +3°C° 0 mm 2 mps 743 mmHg 83%
    23:00 +2°C° 0 mm 3 mps 743 mmHg 81%

    Day after tomorrow, 22 February, Saturday

    Time Temperature Precipitation Wind Pressure Humidity
    00:00 +2°C° 0 mm 3 mps 743 mmHg 80%
    01:00 +1°C° 0 mm 4 mps 743 mmHg 79%
    02:00 +1°C° 0 mm 4 mps 743 mmHg 78%
    03:00 0°C° 0.1 mm 4 mps 743 mmHg 80%
    04:00 0°C° 0.1 mm 4 mps 743 mmHg 82%
    05:00 -1°C° 0.1 mm 4 mps 743 mmHg 85%
    06:00 -1°C° 0.4 mm 4 mps 743 mmHg 87%
    07:00 0°C° 0.4 mm 3 mps 744 mmHg 90%
    08:00 0°C° 0.4 mm 3 mps 744 mmHg 93%
    09:00 +1°C° 0.2 mm 3 mps 745 mmHg 91%
    10:00 +2°C° 0.2 mm 2 mps 745 mmHg 90%
    11:00 +3°C° 0.2 mm 2 mps 746 mmHg 88%
    12:00 +3°C° 0.1 mm 2 mps 746 mmHg 86%
    13:00 +4°C° 0.1 mm 2 mps 746 mmHg 85%
    14:00 +4°C° 0.1 mm 2 mps 747 mmHg 83%
    15:00 +5°C° 0.2 mm 2 mps 747 mmHg 82%
    16:00 +5°C° 0.2 mm 2 mps 747 mmHg 81%
    17:00 +5°C° 0.2 mm 2 mps 746 mmHg 79%
    18:00 +4°C° 0.1 mm 2 mps 747 mmHg 81%
    19:00 +4°C° 0.1 mm 2 mps 747 mmHg 83%
    20:00 +4°C° 0.1 mm 1 mps 748 mmHg 86%
    21:00 +4°C° 0 mm 1 mps 748 mmHg 85%
    22:00 +3°C° 0 mm 1 mps 748 mmHg 85%
    23:00 +3°C° 0 mm 1 mps 748 mmHg 85%

    23 February, Sunday

    Time Temperature Precipitation Wind Pressure Humidity
    00:00 +3°C° 0 mm 1 mps 748 mmHg 84%
    01:00 +3°C° 0 mm 1 mps 748 mmHg 83%
    02:00 +2°C° 0 mm 1 mps 748 mmHg 82%
    03:00 +2°C° 0 mm 1 mps 747 mmHg 80%
    04:00 +2°C° 0 mm 1 mps 747 mmHg 79%
    05:00 +2°C° 0 mm 1 mps 746 mmHg 78%
    06:00 +2°C° 0 mm 1 mps 746 mmHg 75%
    07:00 +3°C° 0 mm 1 mps 746 mmHg 72%
    08:00 +3°C° 0 mm 1 mps 746 mmHg 69%
    09:00 +5°C° 0 mm 1 mps 745 mmHg 61%
    10:00 +6°C° 0 mm 2 mps 745 mmHg 52%
    11:00 +8°C° 0 mm 2 mps 745 mmHg 44%
    12:00 +9°C° 0 mm 2 mps 744 mmHg 43%
    13:00 +11°C° 0 mm 3 mps 744 mmHg 42%
    14:00 +12°C° 0 mm 4 mps 743 mmHg 41%
    15:00 +12°C° 0 mm 3 mps 743 mmHg 46%
    16:00 +11°C° 0 mm 3 mps 742 mmHg 50%
    17:00 +12°C° 0 mm 2 mps 742 mmHg 55%
    18:00 +10°C° 0 mm 2 mps 742 mmHg 57%
    19:00 +9°C° 0 mm 2 mps 742 mmHg 58%
    20:00 +8°C° 0 mm 2 mps 742 mmHg 60%
    21:00 +8°C° 0 mm 2 mps 741 mmHg 58%
    22:00 +8°C° 0 mm 2 mps 741 mmHg 56%
    23:00 +9°C° 0 mm 1 mps 740 mmHg 54%

    24 February, Monday

    Time Temperature Precipitation Wind Pressure Humidity
    00:00 +8°C° 0 mm 2 mps 740 mmHg 52%
    01:00 +8°C° 0 mm 2 mps 739 mmHg 51%
    02:00 +8°C° 0 mm 2 mps 738 mmHg 50%
    03:00 +8°C° 0 mm 2 mps 737 mmHg 51%
    04:00 +8°C° 0 mm 2 mps 736 mmHg 52%
    05:00 +8°C° 0 mm 2 mps 736 mmHg 52%
    06:00 +9°C° 0 mm 2 mps 736 mmHg 51%
    07:00 +9°C° 0 mm 3 mps 736 mmHg 50%
    08:00 +10°C° 0 mm 4 mps 736 mmHg 50%
    09:00 +9°C° 0 mm 7 mps 736 mmHg 54%
    10:00 +8°C° 0 mm 9 mps 736 mmHg 59%
    11:00 +8°C° 0 mm 12 mps 737 mmHg 64%
    12:00 +8°C° 0 mm 12 mps 737 mmHg 57%
    13:00 +9°C° 0 mm 12 mps 737 mmHg 51%
    14:00 +9°C° 0 mm 12 mps 738 mmHg 44%
    15:00 +8°C° 0 mm 11 mps 738 mmHg 43%
    16:00 +8°C° 0 mm 10 mps 739 mmHg 41%
    17:00 +7°C° 0 mm 9 mps 740 mmHg 40%
    18:00 +6°C° 0 mm 8 mps 740 mmHg 44%
    19:00 +5°C° 0 mm 8 mps 741 mmHg 48%
    20:00 +4°C° 0 mm 7 mps 742 mmHg 52%
    21:00 +3°C° 0 mm 7 mps 743 mmHg 55%
    22:00 +3°C° 0 mm 6 mps 743 mmHg 58%
    23:00 +2°C° 0 mm 5 mps 743 mmHg 62%

    25 February, Tuesday

    Time Temperature Precipitation Wind Pressure Humidity
    00:00 +1°C° 0 mm 4 mps 744 mmHg 65%
    01:00 +2°C° 0 mm 3 mps 744 mmHg 68%
    02:00 +1°C° 0 mm 3 mps 744 mmHg 71%
    03:00 +1°C° 0 mm 3 mps 744 mmHg 71%
    04:00 +2°C° 0 mm 2 mps 744 mmHg 71%
    05:00 +2°C° 0 mm 2 mps 744 mmHg 70%
    06:00 +2°C° 0 mm 2 mps 744 mmHg 69%
    07:00 +2°C° 0 mm 2 mps 744 mmHg 68%
    08:00 +4°C° 0 mm 1 mps 744 mmHg 67%
    09:00 +4°C° 0 mm 2 mps 744 mmHg 60%
    10:00 +6°C° 0 mm 2 mps 744 mmHg 53%
    11:00 +7°C° 0 mm 3 mps 744 mmHg 45%
    12:00 +8°C° 0 mm 2 mps 743 mmHg 42%
    13:00 +9°C° 0 mm 2 mps 743 mmHg 38%
    14:00 +10°C° 0 mm 2 mps 742 mmHg 34%
    15:00 +10°C° 0 mm 2 mps 742 mmHg 37%
    16:00 +11°C° 0 mm 1 mps 741 mmHg 40%
    17:00 +10°C° 0 mm 1 mps 741 mmHg 42%
    18:00 +9°C° 0 mm 1 mps 741 mmHg 46%
    19:00 +8°C° 0 mm 1 mps 741 mmHg 50%
    20:00 +6°C° 0 mm 1 mps 741 mmHg 53%
    21:00 +5°C° 0 mm 2 mps 740 mmHg 56%
    22:00 +5°C° 0 mm 2 mps 740 mmHg 58%
    23:00 +4°C° 0 mm 2 mps 740 mmHg 61%
    Show more